Vertical_Velocity
-1 2 1 -3 1 -2 -10 -1 -10 10 1 -7 -2 4 5 1 -2 -3 -2 -0 -0 -1 -1 0 1 0 2 4 2 1 0 -3 -1 -1 -4 -5 -4 -3 -2 -0 0 -2 -0 2
4 -1 -1 0 2 -4 -3 1 -3 -6 -7 4 -2 1 -1 -1 -2 -1 0 -1 -2 -1 0 0 0 2 2 -0 -2 -2 -2 -3 -2 -2 -2 -3 -3 -3 -4 -5 -3 -4 -3 -1
8 -1 1 14 0 -1 2 1 -6 -2 -6 -4 -9 -1 -4 -2 1 -1 -2 -2 -0 -1 -0 1 -0 -1 -1 -2 -2 -2 -2 -2 -0 -1 0 -0 -1 -1 -1 -2 -2 1 1 2
1 -2 4 14 1 -1 -0 1 -0 -1 -3 -4 2 -6 -1 0 -2 -2 -2 -1 -1 -0 1 -1 1 -1 -2 -1 -1 -0 -0 -1 -2 -2 -2 -2 -2 -1 -0 -2 -1 -0 -1 2
-9 0 1 10 -1 -3 -1 7 6 3 2 -1 -1 -1 4 -1 -1 -1 -2 -1 -1 -2 -0 1 -2 -1 0 1 1 -0 -1 -1 -2 -2 -1 0 0 1 2 -1 2 -0 -1 -2
0 -3 -2 2 -3 -1 -2 1 1 0 -0 1 -1 2 -5 -0 -1 2 1 0 -1 1 2 1 0 -0 1 1 1 1 0 0 -1 -2 -3 -2 -1 0 1 -1 0 -1 1 3
-3 -7 3 5 -1 0 -1 3 3 0 -1 -2 -2 -2 -3 0 -2 -2 -2 -0 -1 0 -0 0 -0 -1 -1 -2 -2 -2 -5 -3 1 2 -1 -2 -3 -6 -4 -3 -2 0 -4 3
-2 -7 -3 5 -1 -3 -1 -2 1 -3 -3 -3 -3 -3 -2 -2 -1 -1 -1 -2 -1 -1 -4 -3 -3 -3 -4 -3 -5 -3 -2 -3 -7 -6 -5 -4 -4 -2 -3 -7 -3 -2 -5 -2
-4 3 -2 1 0 -0 -2 -4 -3 -3 -2 -2 -2 -0 -1 1 0 -0 -1 -1 -1 -1 -0 -2 -3 -3 -3 -1 0 -2 -5 -3 -2 -1 -4 -4 -4 -3 -1 -2 -5 -3 -6 -8
-12 13 0 -2 0 -3 2 1 -0 -2 -2 -3 1 0 -0 1 0 1 1 -1 0 -2 -3 -2 -5 -4 -1 -3 -5 -5 -1 -1 -1 -2 -1 0 -1 -4 -2 -7 -4 -3 -4 -6
1 6 -5 4 -1 -2 0 0 -2 -4 -2 1 3 -1 2 -0 0 0 -1 0 -1 -1 -1 -4 -1 0 -2 -3 -2 -1 -1 -1 0 -3 -5 -3 -1 -8 -1 2 -9 -13 -2 -4
8 -7 -4 6 -0 3 -0 -4 -2 -1 -2 3 1 1 -1 -1 -0 -1 -0 -2 -3 -2 -4 -2 -0 -3 -2 -2 -2 -0 1 -3 -3 -6 -3 -4 -4 7 11 -6 -3 7 -9 -8
7 -7 -2 -0 1 -0 -2 -3 -3 -3 3 3 1 0 -1 -0 -1 -1 -1 -2 -1 -2 0 -1 -3 -1 -2 -1 2 -2 -5 -3 -2 -3 -2 -4 -2 -7 -13 31 -9 1 -1 -3
-7 0 5 -2 3 -2 -3 -1 -3 2 1 5 -0 -1 -1 -1 0 -1 -0 -1 -2 -0 -2 -3 -3 -2 2 0 -3 -4 -1 -2 -4 -5 -6 -3 -3 -3 -5 -10 3 9 9 -6
-4 -1 -1 1 -1 -3 -4 -3 -1 1 0 2 -2 -1 -2 1 -1 -0 -1 -2 0 -1 -2 -3 -2 0 -0 -2 -1 -1 -4 -3 -5 -3 -2 -5 -4 -3 -4 -4 -4 -1 3 3
-3 -2 1 -2 -3 -4 -2 0 1 -2 3 -1 -0 -3 0 -0 0 -1 -2 -1 0 -3 -2 -1 -0 0 -3 -0 -2 -2 -1 -3 -4 -4 -2 -0 -0 -1 -1 -2 -2 -2 -0 3
-2 0 -5 -4 -2 -2 2 1 -3 3 -0 2 -3 -1 -0 0 -1 -1 -2 -1 -1 -2 -3 1 -0 -2 -3 -3 -3 -3 -2 -3 -2 -1 -2 -2 -3 -3 -2 -2 -1 -0 -0 1
-3 -1 -4 -2 -1 0 2 -2 1 1 1 -2 -2 -0 -1 0 -2 -2 -1 -4 -6 -4 -1 -2 -2 -1 -3 -1 -3 -3 -3 -3 -2 -2 -3 -4 -4 -1 -0 -1 -2 -1 0 -1
0 -2 -3 -4 -0 0 -1 2 1 -0 1 -3 0 -2 2 -1 -3 -1 -3 -2 -2 -1 -0 -1 -2 -1 -1 -3 -2 -1 -1 -0 -1 -2 -3 -3 -3 -2 -2 -2 -1 -2 -1 0
-3 -3 -4 -0 -0 0 0 -1 -1 2 -2 -0 -1 1 -0 -3 -2 -3 -2 -2 -2 -0 -1 0 -0 -1 -2 -2 -3 -1 -1 -2 -3 -3 -4 0 -2 -3 -2 -2 -2 -1 -2 -1
-4 -5 -0 0 0 -1 0 -1 2 -1 -1 -2 0 1 -2 -1 -3 -4 -3 -2 0 1 -3 -3 -1 -1 -2 -0 -1 -1 -2 -2 -3 -3 -3 -1 -1 -2 -1 -1 -2 -2 -1 -1
-6 1 0 -1 1 1 -1 1 0 -1 -1 -1 1 -0 -2 -1 -3 -1 -4 -2 -2 -4 -1 0 -1 -2 -2 -2 -2 -2 -2 -2 -2 -2 -2 -2 -2 -1 -1 -2 -1 -2 -1 -1
1 -0 -2 1 2 -0 1 1 -1 0 -1 1 1 -1 -1 -3 -2 -3 1 3 -0 -2 -3 -3 -1 -2 -2 -1 -1 -3 -2 -1 -1 -2 -2 -2 -1 -3 -1 -0 -2 -0 0 0
-0 -0 2 -0 -0 1 0 -2 -0 -1 0 1 -0 -0 -3 -3 -3 -4 -3 -4 -4 -1 0 -0 -1 -2 -1 -1 -1 -2 -2 -1 -1 -2 -3 -2 -3 -1 -1 1 -0 -0 -0 -0
1 1 -1 -1 1 0 -2 -1 -1 -0 0 -0 -1 -2 -3 -1 -1 0 1 -1 -2 -3 -3 -3 -2 -2 -1 -1 -1 -2 -3 -2 -2 -1 -2 -3 -2 -2 -0 -1 -1 0 1 1
-1 -0 -0 1 -0 -1 -1 -1 0 -0 -0 -1 -1 -2 -2 -2 -3 -1 -1 -2 -3 -2 -1 -1 -1 -2 -2 -0 -0 0 -2 -1 -1 -2 -2 -2 -2 -2 -1 -1 1 0 0 0
0 1 1 -1 -0 -1 -2 -0 -0 -0 -1 -1 -2 -3 -2 -2 -2 -1 -1 -2 -2 -2 -1 -3 -2 -2 -2 -1 -1 -0 1 -1 -4 -2 -2 -2 -2 -3 -3 -2 0 1 1 -0
Height
5749 5749 5747 5743 5744 5746 5743 5741 5735 5737 5731 5726 5723 5716 5710 5706 5701 5696 5691 5685 5678 5673 5667 5661 5654 5648 5642 5636 5630 5625 5618 5612 5605 5598 5591 5585 5577 5570 5563 5557 5551 5544 5538 5532
5742 5741 5739 5736 5741 5738 5736 5732 5728 5726 5723 5718 5712 5707 5703 5698 5692 5687 5680 5674 5667 5661 5654 5648 5641 5634 5628 5621 5615 5609 5602 5595 5588 5580 5572 5563 5555 5547 5539 5532 5525 5519 5512 5506
5735 5734 5732 5732 5733 5731 5728 5725 5722 5719 5713 5708 5702 5699 5694 5689 5683 5676 5670 5663 5656 5649 5643 5636 5629 5623 5616 5608 5601 5593 5585 5576 5567 5559 5550 5541 5532 5523 5515 5507 5499 5493 5487 5480
5727 5726 5723 5726 5724 5722 5720 5715 5711 5707 5702 5698 5694 5689 5684 5679 5673 5666 5658 5651 5644 5638 5631 5624 5617 5610 5602 5593 5585 5576 5567 5558 5548 5538 5528 5518 5509 5499 5490 5482 5474 5467 5462 5456
5719 5718 5715 5719 5715 5712 5709 5707 5701 5698 5694 5690 5686 5681 5676 5669 5662 5654 5647 5640 5633 5626 5620 5613 5605 5595 5587 5578 5569 5559 5548 5538 5527 5516 5506 5496 5486 5476 5466 5458 5450 5441 5434 5429
5710 5708 5707 5711 5705 5702 5699 5697 5693 5688 5685 5681 5676 5672 5666 5658 5651 5643 5636 5629 5622 5615 5608 5599 5590 5580 5571 5561 5550 5539 5528 5517 5505 5494 5483 5473 5462 5452 5443 5432 5424 5415 5408 5400
5701 5699 5700 5702 5696 5692 5691 5690 5685 5681 5678 5674 5669 5664 5656 5649 5641 5632 5625 5619 5611 5603 5595 5586 5577 5567 5556 5544 5533 5520 5508 5497 5485 5474 5463 5451 5440 5428 5418 5408 5397 5388 5379 5372
5693 5692 5694 5693 5688 5686 5683 5679 5676 5672 5669 5665 5660 5653 5646 5639 5631 5623 5616 5609 5601 5592 5583 5573 5563 5552 5540 5528 5515 5503 5492 5478 5466 5454 5441 5429 5418 5407 5394 5381 5370 5360 5351 5345
5688 5688 5687 5682 5679 5676 5673 5671 5667 5664 5660 5655 5649 5642 5634 5627 5620 5613 5606 5598 5590 5580 5570 5560 5548 5536 5523 5511 5499 5487 5473 5461 5448 5436 5422 5408 5396 5383 5370 5357 5347 5338 5329 5321
5678 5680 5676 5672 5670 5667 5665 5662 5659 5656 5651 5645 5638 5631 5624 5617 5611 5605 5596 5588 5578 5569 5557 5546 5533 5520 5507 5495 5481 5468 5457 5445 5431 5418 5405 5391 5375 5361 5350 5338 5329 5319 5310 5301
5670 5669 5664 5665 5661 5659 5656 5654 5650 5647 5641 5635 5628 5621 5614 5609 5603 5594 5586 5577 5568 5556 5544 5531 5519 5506 5492 5478 5466 5454 5440 5427 5414 5400 5386 5373 5359 5344 5333 5321 5307 5298 5291 5283
5659 5656 5655 5655 5652 5650 5648 5645 5641 5637 5631 5625 5619 5612 5606 5601 5593 5586 5577 5567 5556 5544 5530 5518 5505 5491 5477 5464 5450 5437 5425 5411 5397 5382 5368 5353 5343 5336 5319 5304 5293 5279 5269 5264
5648 5643 5644 5643 5642 5641 5639 5636 5632 5627 5621 5616 5610 5604 5599 5591 5585 5576 5567 5556 5544 5531 5519 5506 5491 5477 5463 5450 5437 5423 5409 5395 5380 5365 5350 5337 5325 5313 5304 5295 5277 5264 5253 5249
5636 5635 5635 5634 5634 5632 5630 5627 5623 5617 5612 5607 5601 5597 5590 5584 5576 5567 5557 5545 5532 5520 5507 5492 5478 5464 5451 5439 5425 5410 5395 5381 5365 5350 5335 5322 5308 5294 5281 5269 5259 5252 5240 5235
5625 5625 5625 5625 5625 5623 5621 5618 5613 5608 5604 5598 5594 5588 5583 5576 5568 5558 5546 5534 5522 5509 5494 5480 5466 5453 5441 5427 5413 5399 5384 5368 5352 5337 5323 5308 5294 5280 5265 5251 5240 5231 5227 5222
5615 5615 5616 5616 5616 5614 5611 5608 5603 5600 5595 5591 5586 5581 5575 5568 5559 5548 5537 5525 5513 5498 5483 5469 5457 5444 5430 5416 5402 5388 5373 5357 5341 5327 5313 5298 5283 5267 5251 5238 5226 5217 5211 5208
5606 5606 5606 5609 5607 5605 5602 5598 5595 5591 5588 5584 5579 5574 5567 5559 5550 5539 5528 5516 5503 5488 5475 5462 5449 5434 5420 5406 5392 5378 5363 5348 5332 5318 5303 5288 5273 5256 5240 5226 5214 5204 5197 5194
5597 5596 5599 5600 5598 5595 5593 5591 5587 5584 5580 5577 5572 5566 5559 5550 5541 5530 5519 5507 5493 5480 5466 5453 5439 5425 5411 5398 5384 5371 5355 5340 5324 5311 5296 5281 5265 5248 5232 5218 5205 5194 5187 5183
5587 5589 5590 5589 5588 5586 5585 5582 5580 5577 5573 5570 5564 5559 5551 5542 5532 5522 5511 5498 5485 5472 5459 5445 5431 5417 5404 5390 5377 5363 5349 5333 5319 5305 5291 5277 5261 5244 5228 5213 5200 5189 5181 5176
5579 5581 5581 5580 5579 5579 5577 5574 5572 5570 5567 5562 5557 5551 5542 5534 5525 5514 5502 5490 5478 5465 5451 5438 5425 5410 5397 5384 5371 5358 5344 5329 5314 5301 5288 5275 5260 5243 5227 5212 5199 5187 5178 5171
5571 5572 5572 5571 5571 5570 5568 5567 5565 5563 5559 5555 5549 5542 5534 5527 5517 5506 5495 5483 5471 5458 5444 5431 5417 5403 5391 5379 5366 5353 5340 5325 5311 5299 5287 5275 5261 5245 5229 5214 5200 5188 5178 5169
5562 5562 5563 5563 5562 5561 5561 5559 5558 5555 5552 5547 5541 5534 5527 5519 5509 5498 5487 5476 5464 5451 5437 5424 5411 5398 5386 5374 5362 5349 5336 5322 5309 5298 5287 5275 5262 5248 5233 5219 5205 5192 5180 5170
5552 5553 5554 5554 5553 5554 5553 5552 5551 5548 5544 5539 5533 5526 5520 5511 5501 5491 5481 5470 5459 5446 5432 5419 5406 5394 5381 5370 5358 5346 5333 5320 5308 5297 5286 5275 5263 5250 5237 5225 5211 5198 5185 5174
5544 5544 5545 5546 5547 5546 5546 5545 5543 5541 5536 5531 5525 5519 5511 5503 5494 5484 5474 5463 5452 5439 5426 5413 5401 5389 5378 5366 5354 5343 5331 5318 5306 5296 5285 5275 5264 5252 5240 5229 5217 5205 5193 5180
5536 5537 5538 5539 5540 5539 5539 5538 5536 5533 5528 5523 5518 5511 5503 5496 5487 5478 5469 5458 5447 5434 5421 5408 5396 5384 5373 5362 5351 5340 5329 5317 5305 5294 5285 5275 5266 5255 5244 5232 5221 5211 5200 5188
5528 5530 5532 5533 5533 5533 5532 5530 5528 5525 5520 5515 5510 5503 5497 5489 5481 5472 5462 5452 5441 5429 5417 5404 5392 5381 5370 5359 5349 5338 5327 5316 5304 5293 5284 5275 5266 5257 5247 5236 5226 5216 5206 5195
5523 5525 5525 5526 5526 5525 5525 5523 5520 5516 5512 5508 5502 5496 5490 5482 5474 5466 5456 5446 5435 5424 5412 5400 5389 5378 5367 5356 5346 5337 5326 5315 5304 5293 5283 5275 5267 5259 5250 5240 5230 5221 5211 5201